Theta_e
334 333 329 319 313 312 312 312 312 312 312 312 312 312 312 312 312 312 312 313 319 327 331 331 330 330 330 332 333 332 332 332 333 334 333 333 332 331 331 327 319 315 313 310 308 308 309 311 312 312 310 309 308 307 307 306 306 306 306 306 306 305 305 305 305 305 304 304 304 304 303 303 303 302 303 303 302 302 302 301 301 301 301 301 301
333 331 326 320 315 313 312 312 312 312 312 312 312 312 312 312 312 312 312 312 316 324 329 330 330 331 331 331 332 333 333 333 333 333 333 333 332 331 331 329 325 320 316 312 309 307 308 309 311 312 311 310 309 309 308 307 307 307 307 306 306 306 305 305 305 305 304 304 304 304 304 303 303 302 302 303 303 302 302 301 301 301 301 301 301
327 325 320 317 316 314 313 312 313 312 312 312 312 313 312 312 312 312 312 312 314 317 323 328 330 331 332 331 331 332 333 334 333 332 333 333 333 331 331 330 328 325 322 319 315 311 309 308 309 310 311 311 311 310 309 308 308 307 308 307 307 306 306 306 305 305 305 305 305 304 304 303 303 302 302 303 302 302 301 301 301 301 301 301 300
320 318 316 315 316 316 314 313 313 313 313 313 312 313 313 313 313 313 312 312 312 313 316 323 328 330 332 332 331 331 332 332 332 332 333 334 333 332 331 331 331 329 327 325 322 319 316 312 310 309 310 311 311 311 310 310 309 309 309 308 308 307 306 306 306 305 305 305 305 304 304 303 303 302 302 303 302 302 302 301 301 301 301 301 301
321 318 316 316 316 316 316 314 314 313 314 314 314 314 313 313 313 313 313 312 312 312 315 321 326 329 331 332 331 331 331 330 330 330 332 333 333 333 332 332 333 332 331 329 326 323 321 317 315 312 310 310 310 311 311 311 311 311 310 310 310 309 308 307 307 306 305 305 305 305 305 304 303 303 302 302 302 302 302 302 302 301 301 301 301
324 322 319 317 317 316 316 315 316 318 317 314 314 315 315 314 313 313 313 313 312 312 316 322 327 329 330 332 332 331 331 330 329 330 331 332 332 333 333 333 332 333 332 331 329 327 325 321 318 316 313 311 309 310 311 312 312 312 312 312 311 310 310 309 308 307 306 305 305 305 305 305 304 303 303 302 302 302 302 302 302 302 301 301 301
324 325 323 321 319 318 319 318 320 326 326 321 318 317 316 315 314 313 312 313 313 313 317 324 328 329 328 329 331 330 330 330 330 330 331 331 332 332 332 333 332 332 332 331 331 330 328 325 321 318 316 312 310 310 310 311 311 312 312 312 312 312 311 310 309 309 308 306 306 305 305 305 305 304 303 303 302 302 302 302 302 303 302 301 301
323 323 324 325 323 321 323 326 328 332 332 329 327 325 322 318 315 314 312 312 314 315 319 325 328 329 328 328 329 330 329 330 331 331 331 331 331 331 332 332 333 332 332 332 331 331 330 328 326 324 321 317 314 311 310 309 310 311 311 312 312 313 312 312 311 310 309 308 307 306 306 306 306 305 304 303 303 302 302 302 302 303 303 302 301
328 325 325 326 326 325 328 332 334 335 335 333 331 331 331 327 320 315 313 314 317 318 321 327 329 330 329 328 328 329 329 329 331 331 331 332 332 331 331 331 332 332 333 333 332 332 331 329 329 328 326 324 321 317 314 311 310 309 309 310 311 312 313 313 312 311 310 310 308 307 307 307 307 306 305 303 303 303 303 303 303 303 303 302 302
331 330 327 326 327 329 330 334 336 336 336 335 332 332 334 333 328 322 320 320 323 324 325 328 329 330 330 328 329 329 328 328 329 330 331 332 332 331 330 330 330 331 332 333 332 332 332 331 331 330 329 328 327 325 322 318 315 313 311 310 310 311 312 312 312 312 312 311 310 308 307 308 309 308 306 304 303 303 303 303 304 304 303 303 302
331 332 331 328 328 330 332 334 336 336 336 336 334 333 333 334 333 330 327 326 327 328 328 329 330 330 330 329 329 329 328 328 327 329 330 331 331 332 331 331 329 328 331 332 333 333 332 332 332 331 331 330 329 328 327 325 322 320 318 315 313 311 311 312 312 313 313 313 312 310 309 309 310 309 307 305 304 303 303 304 305 305 305 304 303
329 330 333 331 329 330 333 334 336 336 336 336 335 334 333 334 335 334 331 329 329 330 329 330 331 330 330 329 329 329 328 328 327 329 330 330 331 332 332 331 329 327 327 329 331 333 333 333 333 332 331 331 331 330 328 327 327 326 325 322 319 317 314 312 312 312 313 313 314 312 310 310 312 311 309 306 304 303 303 304 306 306 306 306 305
329 329 331 332 330 329 331 333 335 337 337 337 335 334 334 334 335 335 334 332 330 330 330 331 332 331 330 329 329 329 329 329 327 327 329 330 331 332 332 330 329 326 325 326 328 331 333 333 333 333 332 332 331 331 330 329 328 328 328 327 326 324 320 315 313 313 313 313 315 314 312 311 313 312 310 308 305 304 304 305 306 307 308 308 307
331 330 330 331 332 331 330 332 334 337 337 337 336 335 334 335 335 335 334 334 332 331 330 331 332 331 330 329 330 330 329 329 328 327 328 329 330 332 332 330 328 326 326 326 325 327 330 332 333 333 333 332 332 332 331 331 330 329 329 328 328 327 325 320 316 314 314 314 315 315 313 312 314 314 311 309 307 305 304 305 307 309 309 309 309
332 331 330 331 333 333 332 331 333 335 337 337 336 336 335 335 335 335 335 335 334 333 331 331 331 331 331 330 330 330 330 329 328 328 328 330 331 331 331 330 329 328 328 328 326 324 325 327 331 333 333 332 332 332 332 332 331 331 330 329 328 328 326 323 320 319 317 315 316 316 314 313 315 315 313 311 308 306 305 306 307 309 310 310 310
330 329 329 330 332 333 333 333 333 334 336 337 336 336 336 336 335 335 335 335 335 333 332 332 331 331 331 330 329 330 331 330 329 329 329 330 331 331 330 330 330 330 329 328 326 325 324 324 327 331 332 332 332 332 331 332 332 332 331 330 329 328 326 325 324 324 321 317 316 316 314 313 315 316 315 313 311 309 306 306 308 309 311 311 311
330 328 328 330 332 332 332 333 334 334 335 336 336 336 336 336 336 335 335 335 335 334 333 333 331 331 331 330 329 329 330 330 330 330 329 330 330 330 330 330 330 330 330 327 326 326 326 325 325 328 330 330 331 332 332 332 332 333 332 331 329 328 327 327 326 326 324 320 317 316 314 313 315 317 317 316 314 312 309 308 309 310 311 311 312
331 329 329 331 333 333 333 334 335 335 335 335 336 336 336 336 336 336 336 336 336 335 334 334 333 331 331 331 329 328 329 330 331 331 330 330 330 331 331 331 330 330 330 329 329 328 327 326 327 328 330 331 331 332 333 333 332 333 332 331 330 329 329 328 327 327 326 323 318 316 314 313 315 317 318 318 317 316 314 312 311 311 311 312 312
332 331 331 332 333 334 333 334 335 336 336 335 335 335 336 336 336 336 336 336 336 336 335 335 334 331 331 332 331 329 329 331 331 330 330 329 328 329 329 328 329 329 329 330 330 330 329 330 330 331 332 332 332 333 334 334 333 333 332 332 331 331 331 330 329 328 327 325 321 317 315 313 314 316 318 319 319 319 318 317 315 314 313 313 313
334 334 333 333 333 332 332 333 333 334 335 335 334 335 335 336 336 336 336 336 336 336 335 335 334 331 330 331 332 330 329 330 331 330 329 328 326 326 326 325 327 328 330 330 331 331 330 331 332 332 332 333 333 334 334 334 333 333 333 332 332 332 331 331 330 329 328 326 323 320 317 315 315 316 317 319 319 320 319 319 319 318 317 316 316
335 334 335 334 332 331 331 332 332 333 333 333 333 333 335 335 335 335 336 336 336 336 336 335 334 331 330 331 332 331 330 330 330 330 330 329 327 326 325 326 328 329 331 332 332 331 331 331 332 332 332 333 334 334 334 334 333 333 332 333 333 332 332 332 332 331 330 328 325 323 321 318 317 317 317 319 319 320 320 320 319 319 319 319 318
335 334 334 334 333 331 332 333 333 333 333 332 332 332 333 334 334 335 335 335 336 337 336 335 335 333 330 330 331 331 331 330 330 330 330 330 328 327 328 330 331 331 331 332 332 332 332 331 332 332 333 333 334 334 334 334 333 333 333 333 333 333 332 332 332 332 331 329 326 324 322 321 319 319 318 319 319 320 320 320 320 320 320 320 319
336 335 335 335 334 333 331 331 332 333 333 333 331 331 333 333 333 334 334 334 335 336 336 335 335 334 332 331 330 330 331 330 329 330 331 331 330 329 330 333 334 333 332 332 332 332 332 332 332 332 333 333 334 334 334 334 334 333 333 333 333 333 333 332 332 332 331 330 328 326 324 323 322 321 320 320 320 320 320 320 320 320 320 320 320
336 336 336 336 336 334 331 330 330 331 332 333 331 331 333 333 333 333 333 333 334 336 337 336 336 335 333 332 331 331 331 330 329 329 330 331 331 331 332 334 335 334 333 333 333 333 332 333 333 333 333 333 333 334 334 333 333 333 333 333 333 333 333 332 332 332 332 331 329 328 327 326 325 324 323 322 321 321 321 320 320 320 320 320 320
336 336 336 336 336 336 333 331 330 331 331 333 332 332 334 334 333 333 333 332 333 335 336 336 336 335 334 333 332 331 331 331 330 329 330 331 331 332 333 334 334 334 334 334 334 333 332 331 332 333 333 333 333 333 333 333 333 333 333 333 333 333 332 333 332 332 332 331 330 329 328 328 327 326 325 324 323 323 322 322 321 321 321 321 321
335 336 335 335 336 336 333 331 332 332 332 334 334 334 335 334 333 333 333 332 332 333 334 335 336 336 335 334 332 332 331 330 331 330 329 331 332 332 332 333 333 334 335 335 334 333 330 328 330 333 334 333 334 333 333 333 332 332 332 333 332 332 332 332 333 332 332 331 330 329 329 328 327 326 325 325 325 325 324 324 323 323 322 322 322
331 334 334 334 334 335 334 332 332 333 333 334 334 334 335 335 334 333 333 332 332 332 333 334 336 336 335 334 333 332 331 330 330 330 329 330 331 332 332 332 332 333 335 335 335 333 328 325 329 333 333 333 333 333 333 333 332 332 332 332 332 332 332 332 333 333 333 332 331 329 329 328 328 328 328 327 327 327 326 325 325 324 324 324 324
327 330 333 334 334 334 334 333 333 333 333 333 334 334 334 335 334 334 334 333 333 333 333 334 335 336 336 335 333 332 332 331 330 329 330 330 330 331 331 332 332 332 333 334 334 331 324 324 329 332 332 332 332 332 333 332 332 331 331 331 331 331 332 332 332 332 332 333 332 330 329 329 329 329 329 329 329 329 328 328 326 326 326 326 326
326 327 330 334 335 335 334 334 334 334 334 333 333 333 334 335 335 334 334 334 334 333 333 334 335 335 336 335 334 332 331 332 331 330 330 331 331 331 331 331 331 331 332 332 332 328 322 324 329 330 330 331 331 331 332 332 332 331 331 330 331 331 331 331 331 331 332 332 332 331 330 329 329 329 329 329 330 330 330 329 328 327 327 326 327
326 327 328 330 333 335 336 336 335 335 335 334 333 333 334 334 335 335 334 334 335 335 334 334 334 335 336 335 335 334 331 331 331 331 331 333 333 333 333 333 332 331 331 331 331 328 323 325 329 330 329 330 331 331 331 332 332 332 331 330 330 331 331 331 331 331 331 332 332 331 330 330 330 330 330 330 330 330 330 329 329 328 327 327 327
327 328 328 328 331 333 335 336 336 336 336 336 335 334 334 334 334 335 334 334 335 335 335 335 334 335 336 335 335 334 332 331 332 332 331 332 334 335 334 334 333 333 332 331 332 328 323 325 329 330 330 330 331 331 331 331 331 331 331 331 330 331 331 332 332 332 332 332 332 332 331 331 330 330 330 330 331 330 330 329 329 329 328 328 327
327 328 328 328 329 331 333 334 335 336 336 336 336 335 334 334 334 334 334 334 335 335 335 334 334 334 335 335 334 333 333 333 333 333 332 331 333 334 335 335 335 334 333 331 332 329 323 327 331 331 330 330 331 331 331 331 331 331 331 331 331 331 331 331 331 331 331 332 332 332 332 331 331 331 331 331 331 331 331 330 330 330 329 328 328
327 327 328 328 328 330 331 332 332 334 335 336 336 336 335 334 334 334 334 334 335 335 335 335 334 334 335 335 333 332 333 335 335 334 333 332 331 332 334 335 335 335 334 332 331 329 326 330 332 331 330 330 330 331 331 330 330 331 331 332 332 333 332 331 331 331 331 331 331 331 332 332 332 331 331 331 331 332 332 331 330 330 329 329 328
326 327 328 328 328 329 330 331 332 333 334 335 335 335 335 335 335 335 335 335 335 334 335 335 334 333 334 334 333 333 334 335 336 335 335 333 332 332 332 334 335 335 334 333 332 330 330 332 333 332 329 328 328 329 330 329 327 328 330 332 332 333 332 332 331 330 330 330 331 331 331 332 332 332 332 332 332 332 332 331 331 330 330 330 329
326 327 327 327 327 328 329 331 332 333 334 334 334 334 335 336 336 336 335 334 334 335 335 334 333 333 334 334 333 333 334 335 335 336 336 335 334 332 332 333 335 335 334 334 335 335 336 335 335 334 330 327 326 326 328 330 328 326 328 330 332 332 332 332 331 330 329 329 329 330 331 331 332 332 332 332 332 332 332 331 331 331 331 331 330
326 326 326 327 327 328 329 330 331 332 333 334 335 335 335 335 336 336 335 333 333 334 334 331 329 331 333 333 332 333 335 336 335 335 336 335 335 334 332 332 333 335 335 335 335 338 338 337 337 335 331 328 325 323 325 329 328 326 325 325 329 331 332 332 331 329 329 329 329 330 331 332 333 333 333 333 333 332 332 332 332 332 332 331 331
325 325 326 326 326 328 328 329 330 331 332 333 334 334 333 332 334 335 335 334 332 333 334 331 328 329 331 332 333 333 335 336 336 336 336 335 335 335 334 332 332 334 336 335 335 337 338 338 337 336 335 332 328 323 322 325 326 325 323 322 325 328 330 330 330 329 329 329 329 330 331 331 332 333 333 333 333 333 333 332 333 332 332 332 331
324 325 326 326 326 326 327 328 329 329 330 332 333 333 331 330 332 334 334 334 333 334 335 332 329 329 329 332 333 333 334 335 335 336 336 336 335 334 334 333 332 333 335 336 336 337 337 338 337 337 337 334 328 322 319 321 324 323 321 320 321 324 326 326 326 325 326 326 326 326 327 328 329 331 332 332 333 333 333 333 333 333 332 332 331
324 325 326 327 327 327 328 329 329 329 331 332 333 333 331 329 330 332 334 335 335 335 334 332 329 329 330 331 333 333 334 333 334 336 336 336 335 334 333 333 332 333 335 336 336 337 337 337 337 337 336 333 329 323 319 321 323 323 322 320 319 320 321 322 322 323 323 324 323 324 324 325 326 328 330 332 333 333 334 334 334 333 332 332 332
324 324 325 327 328 329 330 330 331 331 332 333 333 334 333 331 331 332 334 335 337 336 333 331 330 330 331 333 333 334 334 333 333 335 337 336 336 334 332 333 334 334 334 335 335 336 336 337 337 336 335 333 330 327 326 327 325 321 321 322 320 318 319 320 321 321 322 322 323 323 324 324 325 326 328 330 332 334 334 334 333 333 333 333 333
324 324 324 326 328 329 330 331 331 331 332 332 333 334 334 334 333 333 333 334 336 336 333 331 331 332 333 334 334 334 334 334 333 334 336 336 336 335 333 333 334 335 335 335 335 334 335 335 334 334 334 333 331 331 331 330 326 322 322 324 323 321 322 323 321 321 322 322 323 324 324 324 325 326 327 328 330 332 333 333 333 333 333 333 333
323 324 324 325 327 328 329 330 331 331 331 332 332 333 334 335 335 334 334 334 335 336 334 332 332 332 332 333 334 334 335 335 334 334 336 336 336 336 334 333 334 335 335 335 335 334 334 334 332 331 333 333 331 333 333 329 327 328 329 329 328 325 327 327 324 321 323 324 324 324 324 324 325 327 328 329 331 332 333 333 333 333 333 333 333
323 324 324 325 326 327 328 329 330 330 331 331 332 332 333 334 334 334 334 334 335 336 334 333 333 332 331 332 334 334 335 335 335 335 336 336 336 336 335 333 334 335 336 335 334 333 334 334 331 331 333 333 330 332 333 331 331 332 332 331 331 330 331 331 329 324 323 325 326 326 325 326 327 329 330 331 331 332 332 332 333 333 333 333 333
323 323 324 324 325 326 327 328 329 330 330 331 332 332 332 333 333 333 334 335 335 336 335 334 334 331 330 331 333 334 334 334 335 335 336 336 336 336 336 335 334 335 336 336 334 333 333 334 333 332 333 332 330 332 333 332 333 333 332 333 333 333 332 333 332 328 324 327 329 329 328 328 329 331 331 332 332 333 333 333 333 333 334 334 334
322 323 323 323 324 325 327 328 328 329 329 330 331 332 332 332 332 332 334 335 336 336 335 335 335 332 330 330 332 332 334 335 335 335 336 336 336 336 336 336 335 335 336 336 335 334 334 334 334 334 333 333 332 332 332 332 333 334 333 333 333 333 333 333 332 329 326 329 331 331 331 331 331 333 333 333 334 333 333 333 334 334 335 335 335
321 322 323 323 324 325 326 328 328 328 329 329 330 331 331 332 332 332 333 334 335 335 335 335 335 333 331 330 331 332 334 335 335 336 336 336 336 336 335 335 336 336 336 336 335 335 335 335 335 335 335 334 334 334 333 333 333 333 334 334 333 333 333 333 332 331 331 332 333 333 333 333 333 334 334 334 334 334 333 333 334 334 334 334 334
320 321 322 322 323 324 325 326 327 328 329 329 330 330 331 331 332 332 332 333 335 335 335 335 336 335 333 332 332 333 334 335 335 335 336 335 335 335 334 334 335 335 335 335 336 336 335 335 335 335 335 335 335 335 335 334 334 334 334 334 334 333 334 334 334 334 333 333 334 334 335 334 334 335 335 335 334 334 332 331 332 333 332 333 332
318 320 320 321 321 323 325 325 326 327 328 328 329 330 330 331 331 332 333 334 335 335 335 336 336 335 335 334 333 334 335 334 332 331 332 333 334 334 333 332 332 332 334 335 336 336 336 335 334 334 334 334 334 334 335 335 335 335 335 335 335 335 335 335 335 335 334 334 334 335 335 335 335 335 335 335 335 334 332 332 332 331 329 330 332
317 319 320 320 320 322 324 325 325 326 327 328 328 329 330 331 331 332 333 334 334 334 335 336 336 335 335 335 334 334 332 331 329 327 327 330 332 333 334 334 334 334 335 336 336 336 336 336 335 333 332 332 333 334 334 334 335 336 336 335 336 336 336 336 336 335 335 335 335 335 337 336 335 335 336 335 335 333 332 332 331 329 328 330 332
314 317 318 319 319 321 324 324 325 326 327 328 328 329 329 331 331 332 332 333 333 333 334 335 336 336 336 336 336 334 330 328 327 326 326 328 331 333 334 334 334 335 335 335 336 336 336 336 335 335 334 333 333 333 332 331 332 334 335 335 335 336 336 336 336 336 336 335 335 335 336 336 335 335 335 335 334 332 330 331 331 329 330 331 332
310 313 315 316 317 320 322 324 325 326 327 327 328 329 329 330 331 331 332 332 333 332 333 334 334 335 335 336 335 333 329 326 326 326 325 327 330 332 332 333 334 335 335 334 335 335 336 335 334 333 332 330 330 330 330 329 328 330 333 334 335 335 336 336 336 336 336 335 335 334 334 335 334 334 334 334 334 333 332 331 331 330 331 331 331
Wind_Speed
26 26 26 26 26 26 26 26 26 25 24 23 22 21 19 18 17 16 15 14 13 13 14 13 10 8 7 9 9 9 10 9 9 8 7 7 7 6 6 6 6 6 8 10 10 10 10 10 10 10 10 10 10 10 9 9 9 9 8 8 8 7 7 6 6 6 5 5 4 4 4 4 4 4 4 4 4 4 4 4 5 5 6 6 7
27 27 27 28 27 27 28 28 28 27 27 26 24 23 22 20 19 18 17 16 15 14 14 13 11 9 7 7 8 8 9 9 9 8 7 7 7 7 7 7 7 7 8 9 10 11 11 11 11 11 11 11 11 11 10 10 10 10 9 9 9 8 8 7 7 6 6 5 5 5 5 5 5 5 4 4 4 5 5 5 5 6 6 6 7
27 27 28 29 28 29 29 29 30 29 29 28 26 25 24 23 21 20 19 18 17 15 14 14 13 11 10 8 8 8 8 10 10 9 8 8 8 7 8 8 8 8 9 9 10 11 12 12 13 12 12 12 12 12 11 11 11 10 10 10 10 9 9 8 8 7 6 6 6 6 6 6 6 6 5 5 5 5 5 5 6 6 6 7 7
27 28 28 29 30 30 30 31 31 31 30 30 29 28 26 25 24 22 21 20 19 18 16 16 15 12 12 11 10 9 9 10 10 9 10 9 8 9 9 8 8 9 10 10 10 11 12 13 13 14 13 13 13 13 12 12 12 11 11 11 10 10 10 9 9 8 7 7 7 7 7 7 7 6 6 5 5 5 6 6 6 6 6 7 7
28 29 30 30 30 31 31 32 31 30 31 31 30 30 29 28 26 25 24 23 22 21 19 18 17 14 13 14 12 12 12 12 11 10 11 11 9 9 9 9 10 10 11 11 11 11 11 12 13 14 14 14 14 13 13 13 13 12 12 12 11 11 11 10 10 9 8 8 8 8 8 8 8 7 7 6 6 6 6 6 6 6 6 7 7
29 30 31 31 31 32 32 32 29 28 30 32 33 32 31 30 29 28 26 25 25 23 22 20 17 15 15 16 15 14 14 15 14 12 12 12 11 11 11 11 12 12 12 12 12 12 12 12 12 13 14 15 15 15 15 14 14 13 13 13 13 12 11 11 10 10 9 9 9 8 8 8 8 8 7 7 7 7 7 6 6 6 7 7 8
30 29 30 31 32 33 33 31 27 24 25 29 32 32 33 33 31 30 29 27 26 24 23 21 18 17 17 17 17 17 17 17 17 16 14 14 14 13 13 13 13 13 13 13 13 13 13 13 12 12 13 14 15 15 16 16 15 14 14 14 13 13 12 11 11 10 10 10 10 10 9 9 9 9 8 8 8 7 7 7 7 7 7 7 8
28 29 30 30 31 33 32 30 26 24 23 25 27 28 30 33 33 32 30 29 27 25 24 23 20 19 19 19 19 18 18 19 20 19 17 17 17 16 15 14 15 15 15 15 14 13 13 13 12 12 12 13 14 15 16 16 16 15 15 15 14 14 13 12 12 11 11 11 10 11 10 10 10 10 9 9 8 8 8 7 7 8 8 8 8
27 27 28 29 30 32 32 29 27 27 26 26 26 26 24 27 31 31 30 29 27 25 25 24 22 21 20 22 22 19 19 20 21 20 20 20 19 18 17 16 16 16 17 17 16 14 14 14 14 14 14 14 14 15 16 16 17 17 16 15 15 15 14 13 13 12 12 12 11 12 12 11 11 10 10 10 9 9 8 8 8 8 8 8 8
27 26 27 29 29 31 32 31 30 30 29 29 28 27 25 24 26 27 27 28 26 25 25 25 24 22 21 23 24 21 20 21 22 21 21 22 21 20 19 18 18 18 18 18 17 16 16 16 16 15 15 15 15 15 16 16 16 17 16 16 16 16 15 14 14 13 12 12 12 12 13 12 12 11 11 11 10 10 9 9 8 8 8 8 8
28 28 27 27 29 31 32 32 32 32 33 33 31 29 28 27 27 25 26 27 26 25 25 24 24 24 23 23 25 23 22 23 23 23 23 23 23 22 22 21 20 19 19 19 19 18 18 18 18 17 16 15 15 16 16 16 16 16 16 16 16 16 17 16 15 14 13 13 13 13 14 13 13 12 12 12 11 11 10 9 9 9 8 8 8
28 29 29 29 30 31 32 34 34 34 35 36 34 31 30 30 29 28 27 28 27 26 26 25 25 27 25 23 26 25 25 26 26 25 25 25 25 24 25 25 24 23 21 20 20 20 19 19 19 19 18 16 15 16 17 17 17 17 17 17 17 17 17 17 16 15 14 13 13 14 14 14 13 13 13 13 12 12 11 10 9 9 8 8 8
29 29 31 31 31 32 32 34 36 36 34 36 36 33 32 32 31 30 29 30 31 29 28 27 26 28 28 25 27 28 26 26 28 28 28 28 27 27 27 28 29 28 25 23 22 21 21 21 20 20 19 18 17 17 17 17 18 19 19 18 18 18 18 18 18 17 15 14 14 14 14 14 14 14 14 14 13 13 12 12 10 10 9 8 8
31 30 32 33 34 33 33 34 37 38 35 34 35 35 34 34 34 34 33 32 33 33 31 30 30 30 30 27 27 28 28 28 29 31 31 31 30 29 30 31 32 32 29 28 26 24 23 22 22 21 21 20 19 19 18 18 18 19 19 19 19 19 19 18 18 17 16 15 15 14 15 15 15 14 14 14 14 14 13 13 12 11 10 10 9
32 32 33 34 36 36 35 35 36 39 38 35 35 36 36 36 36 36 36 34 34 35 34 33 33 32 29 28 28 27 28 30 32 33 32 32 32 31 32 33 34 33 32 32 31 29 27 25 25 24 23 23 21 21 20 20 19 18 18 18 19 19 19 18 18 18 17 16 15 15 15 16 15 15 15 15 15 15 15 14 13 13 12 12 11
32 32 33 35 37 37 37 37 37 39 40 39 38 37 37 38 38 37 37 37 36 36 36 35 35 34 30 30 28 25 27 32 33 34 33 32 33 34 35 35 35 34 34 34 33 32 31 28 27 26 25 24 23 22 21 21 19 18 18 18 18 18 18 18 19 19 18 17 16 16 16 17 16 15 15 15 16 16 16 16 15 15 14 14 13
33 32 32 35 38 38 37 38 39 39 41 43 42 41 40 39 39 39 39 39 39 38 37 35 35 36 34 30 27 25 28 30 29 31 33 35 35 35 36 36 35 35 35 35 34 33 32 31 29 28 27 26 24 23 22 21 20 19 19 18 17 17 17 18 20 20 20 18 16 16 17 17 17 16 16 16 16 16 17 17 17 17 17 16 16
35 34 33 35 38 38 38 38 39 40 41 43 44 44 43 42 40 40 40 41 40 39 39 37 36 37 38 35 32 29 27 25 25 28 30 33 36 36 37 36 36 35 35 35 34 33 32 30 29 28 27 26 24 23 22 21 20 20 19 19 18 17 16 17 19 20 20 19 18 17 17 18 18 18 17 17 16 16 17 18 18 18 18 18 18
39 38 36 36 37 37 37 38 38 39 39 41 43 45 45 44 42 41 41 41 42 42 43 42 38 38 41 40 37 36 30 23 23 25 25 28 31 33 35 36 36 35 34 34 35 34 33 31 30 28 27 26 25 24 23 22 21 20 20 19 19 18 18 17 18 19 20 20 20 19 19 19 19 19 19 18 18 17 18 18 18 19 19 19 20
41 40 38 38 37 36 36 37 39 38 37 38 40 44 46 45 44 44 42 41 43 45 45 44 42 40 42 43 40 39 37 31 27 25 24 25 26 28 31 32 34 35 34 33 33 34 35 33 31 29 28 27 26 25 24 23 22 21 21 20 19 19 19 18 18 18 19 20 21 21 20 21 21 21 21 20 20 19 19 19 20 20 20 20 21
41 41 41 39 38 37 38 39 39 38 37 37 37 40 44 46 46 46 44 42 42 44 45 46 45 42 41 44 43 41 41 38 33 29 28 28 29 30 29 28 31 34 33 33 32 32 34 34 33 31 30 29 27 26 25 24 23 22 21 20 19 19 19 19 19 19 19 20 22 23 23 22 22 22 23 22 22 21 21 21 21 21 21 21 22
42 42 42 41 40 40 40 41 40 39 39 39 38 38 40 44 47 48 47 45 43 43 45 46 46 44 41 42 44 44 43 42 39 34 33 34 33 33 30 27 29 32 31 30 29 29 30 31 32 32 32 31 29 28 27 26 25 24 22 21 20 19 19 19 19 19 19 19 21 23 23 23 23 23 24 24 24 24 23 23 24 23 23 23 23
41 43 43 43 42 42 42 41 40 41 41 39 39 40 40 42 45 47 49 48 45 43 44 46 46 46 44 43 44 44 44 45 45 40 37 36 36 35 33 29 28 30 29 27 26 26 27 28 29 30 30 31 30 29 28 27 26 25 23 22 21 20 19 19 19 19 20 20 21 22 22 23 23 24 25 25 26 26 26 25 25 26 25 25 25
39 43 45 45 45 45 44 44 42 42 42 40 39 40 41 41 42 46 48 49 48 44 43 46 46 47 47 45 45 45 45 46 46 44 40 38 37 37 35 31 29 30 29 26 25 26 26 26 27 27 28 29 30 30 29 28 27 26 24 23 21 20 19 19 19 19 20 21 22 22 22 23 24 25 26 26 27 27 27 27 27 27 27 27 27
37 41 44 45 46 46 46 47 46 45 43 42 40 40 42 42 43 45 46 48 49 46 45 46 46 48 48 47 46 47 46 45 45 46 44 40 39 40 39 33 31 31 29 27 26 26 26 27 27 27 27 28 28 29 29 29 29 27 25 24 22 21 20 20 19 19 20 21 22 22 22 23 24 25 27 28 28 28 28 28 28 28 29 29 29
34 38 40 41 43 45 45 45 47 47 46 45 43 41 43 44 43 43 43 45 48 48 47 46 46 47 48 47 48 48 48 46 44 46 47 45 42 42 42 38 36 34 31 29 27 27 29 30 29 29 29 28 28 29 29 30 29 28 26 24 24 23 22 21 20 20 20 20 21 22 22 22 22 24 26 27 28 29 29 29 28 29 29 30 30
31 34 36 38 39 41 43 44 46 47 48 47 46 44 44 45 43 42 41 43 46 48 48 46 47 47 47 47 48 48 49 48 45 45 47 49 48 45 43 40 37 35 35 33 31 32 34 34 31 30 29 28 28 28 28 29 29 28 26 26 25 24 23 22 21 21 21 21 21 21 22 22 21 22 24 25 27 28 29 30 30 30 30 30 30
29 31 33 35 37 38 41 43 44 45 45 46 46 45 45 46 44 42 41 42 43 46 48 47 47 47 47 47 47 48 49 48 47 45 45 47 49 47 46 43 38 35 36 36 36 39 38 36 33 30 29 28 27 27 27 27 28 27 27 27 27 26 25 23 22 21 22 22 22 22 22 23 23 23 24 25 26 27 28 30 31 31 31 31 31
26 29 31 34 36 38 40 42 44 45 44 43 44 45 45 46 46 44 43 43 43 44 46 47 47 46 46 46 47 47 48 48 48 47 46 45 45 45 45 45 43 39 37 36 39 42 38 35 34 29 27 27 27 26 26 26 26 26 27 28 27 27 25 24 23 22 22 23 23 23 23 24 24 25 25 27 28 29 30 30 31 31 32 32 32
25 27 30 32 35 38 40 41 43 45 45 43 44 45 45 45 45 45 44 44 45 45 45 46 46 46 46 47 47 48 47 47 48 48 48 45 44 43 43 43 43 43 42 39 41 44 40 36 35 29 25 25 24 25 25 26 26 26 27 27 27 26 25 24 23 23 23 23 24 24 25 26 26 26 27 28 29 30 31 31 31 31 32 33 33
24 25 28 30 33 36 39 41 42 44 45 44 45 46 47 46 46 46 45 45 46 46 46 45 45 45 46 47 47 48 47 47 46 47 48 48 46 43 41 41 42 43 44 42 43 46 43 38 35 30 26 24 23 24 25 25 26 26 26 27 27 26 25 24 24 24 24 24 25 26 27 28 28 28 28 29 29 30 30 31 30 30 31 32 33
22 24 26 29 31 33 36 39 40 41 43 44 45 46 47 48 48 48 48 46 46 47 46 44 43 44 47 48 47 47 47 47 46 45 47 49 49 47 43 41 42 43 43 42 45 49 46 40 36 33 29 26 24 24 25 24 24 25 25 25 26 25 25 25 24 24 25 25 25 27 28 29 29 29 29 30 30 31 31 31 31 31 30 30 32
22 24 26 27 30 32 33 36 38 39 41 43 44 45 47 49 48 48 49 49 47 47 48 47 45 44 46 48 48 47 46 47 48 47 46 47 48 49 48 44 44 44 42 42 47 51 49 43 40 37 33 30 28 25 24 24 24 25 26 26 26 26 26 26 26 26 26 26 26 27 28 30 30 31 31 31 32 32 32 32 32 30 29 27 27
22 24 26 26 28 30 32 34 36 39 41 42 43 46 47 48 48 47 48 50 50 49 48 48 47 45 46 47 48 48 47 47 48 48 47 47 47 48 49 48 47 46 43 42 44 48 49 46 43 40 37 35 34 30 27 26 25 25 27 28 27 27 28 28 29 29 28 28 28 29 30 30 31 32 33 33 33 33 33 33 31 30 29 28 26
22 24 25 26 27 29 32 33 35 38 41 42 43 44 46 47 49 49 47 47 49 50 48 47 47 47 47 47 48 49 48 47 48 48 48 48 47 47 48 49 49 47 46 44 44 46 47 47 46 43 40 38 37 34 31 30 29 28 29 30 30 30 30 31 31 32 32 31 31 31 31 32 33 34 35 35 35 34 34 33 32 30 29 29 28
22 23 25 26 27 28 32 33 33 36 38 40 41 42 44 46 48 50 48 46 46 48 48 45 44 47 48 48 48 48 48 48 48 48 48 48 48 48 49 50 50 50 48 47 48 48 47 47 47 46 43 40 39 37 35 34 34 33 32 32 32 33 34 34 35 35 35 34 34 34 34 35 36 37 37 37 36 35 34 33 32 31 30 30 30
22 24 26 27 28 28 31 33 33 35 36 38 40 42 43 43 46 48 49 48 46 47 49 47 45 46 48 49 49 48 47 48 49 49 49 48 48 48 49 50 51 51 49 48 50 50 49 50 50 49 46 44 42 40 37 37 36 35 35 35 35 36 37 37 38 38 38 37 37 38 38 38 39 39 39 39 38 36 35 34 34 33 32 31 31
22 24 26 27 28 28 30 32 33 35 36 38 40 43 43 43 43 45 48 49 49 49 50 48 46 46 48 49 49 49 48 48 50 50 50 49 47 47 50 51 51 51 50 49 49 49 49 51 51 50 49 48 46 43 40 38 38 38 36 35 36 36 38 38 38 38 37 37 38 38 39 38 38 38 38 38 38 37 36 35 36 35 34 33 33
22 25 26 27 26 27 29 32 33 35 36 38 40 43 44 43 43 44 47 49 50 50 50 49 48 47 48 49 50 50 49 50 51 51 50 49 48 48 49 50 50 49 50 50 49 48 48 49 49 50 50 49 48 46 42 39 39 39 38 37 37 36 35 37 37 37 37 37 38 38 37 37 37 37 37 37 37 37 37 37 37 35 34 34 34
22 25 26 26 27 27 29 31 33 34 36 38 41 43 44 44 44 45 47 49 50 50 49 49 49 48 48 49 50 50 50 50 51 51 51 50 49 49 49 50 50 49 50 50 49 49 49 49 49 50 49 49 49 46 42 38 38 39 38 38 38 36 34 36 37 37 37 37 38 37 36 36 36 36 36 36 37 37 37 36 34 33 33 34 34
19 24 26 26 26 28 29 31 33 35 36 38 42 45 46 47 47 46 47 48 50 51 50 49 49 48 48 49 49 49 50 51 52 52 52 51 51 51 50 50 50 50 50 50 49 49 49 49 50 50 48 49 50 46 43 40 38 38 37 37 38 38 37 37 37 37 37 36 37 37 36 35 35 35 36 36 36 36 35 33 32 31 32 33 33
17 21 24 25 25 27 28 30 32 34 36 37 40 43 46 48 48 49 48 49 50 51 52 51 49 47 47 50 50 49 50 51 52 53 53 52 52 52 52 51 51 50 50 50 50 50 49 49 50 49 46 48 50 48 45 43 39 38 37 38 39 39 38 39 39 38 37 37 37 38 36 34 34 35 35 35 35 33 32 31 29 30 30 31 32
18 19 21 22 24 26 27 29 32 33 35 36 37 40 44 46 46 47 48 49 50 52 53 53 50 47 47 50 51 50 50 51 52 53 54 54 53 53 53 52 52 52 51 51 51 50 49 49 49 48 47 49 50 48 46 45 42 40 39 39 39 40 39 40 40 39 37 36 36 38 37 34 33 33 34 34 33 31 31 29 27 27 27 28 29
20 20 19 19 20 23 27 29 32 34 35 35 36 37 40 43 44 44 46 48 49 51 54 54 51 48 48 49 49 50 52 53 53 55 56 55 54 54 54 53 54 54 54 52 52 51 49 48 48 47 48 49 50 49 48 47 44 42 41 40 40 40 40 39 40 40 39 38 37 38 39 36 34 33 33 33 31 29 30 30 28 28 27 27 27
21 21 19 17 17 19 23 26 31 34 36 36 36 36 37 39 41 42 44 47 49 50 52 53 52 51 49 48 48 49 51 52 53 54 55 54 53 52 52 53 55 56 56 55 53 52 50 49 49 48 48 48 49 49 47 46 45 44 42 41 40 39 39 40 41 41 40 40 40 39 40 38 35 34 34 32 30 28 30 31 30 30 29 29 28
23 23 21 18 16 17 19 22 26 30 33 35 36 35 36 38 39 40 42 45 49 50 51 52 53 53 51 49 48 49 49 49 50 52 53 53 52 51 50 51 53 56 57 55 54 53 52 51 50 49 48 48 48 49 47 45 45 44 43 42 40 39 39 39 40 41 40 40 38 38 40 38 36 37 37 34 32 31 31 32 32 32 32 32 31
26 25 23 19 18 18 18 19 22 26 29 32 32 33 34 35 37 40 41 43 46 50 52 52 52 53 52 51 50 49 48 46 44 45 46 49 51 50 49 49 51 53 55 55 53 52 51 50 49 47 48 47 46 47 47 47 46 45 45 43 41 41 39 37 39 40 40 39 37 37 39 38 37 39 40 38 37 35 34 35 35 34 35 36 35
29 28 26 22 19 19 19 19 21 25 29 30 30 30 30 30 33 36 39 42 45 50 52 52 52 52 52 52 51 49 46 43 41 40 41 43 46 48 49 51 52 53 56 56 54 50 49 47 44 43 45 46 46 45 46 46 46 46 45 43 43 42 39 37 39 41 40 39 36 36 39 39 38 41 43 42 41 38 38 38 36 35 38 40 40
33 32 30 26 21 19 19 20 22 23 26 28 29 28 27 28 31 33 36 41 46 50 50 50 49 50 51 51 50 48 46 44 42 41 39 40 43 45 47 50 52 53 54 56 54 49 45 43 39 36 37 41 44 44 43 44 45 45 44 43 43 43 40 40 41 42 41 40 37 36 38 37 37 40 40 38 37 39 42 43 39 37 39 39 39
34 33 33 31 25 20 19 21 22 22 22 24 26 27 27 28 29 30 32 37 42 46 48 49 49 49 50 49 48 47 47 46 43 41 40 40 41 43 44 45 48 50 51 51 50 44 38 35 33 32 32 34 35 34 35 37 40 42 43 43 42 43 44 43 43 43 42 40 37 37 37 37 38 40 40 37 37 41 44 43 39 36 34 33 33
30 32 33 34 31 24 20 19 20 21 21 21 22 24 28 29 29 28 29 32 37 41 44 45 46 46 47 47 46 45 45 44 40 39 39 39 40 42 43 42 44 46 44 43 43 39 34 32 31 30 32 33 32 31 30 31 33 36 39 41 41 43 48 48 45 44 43 41 40 39 41 42 40 39 39 39 38 39 40 37 34 32 30 29 31
Wind_Direction
232 235 239 238 234 232 230 229 229 229 228 226 222 219 217 215 214 211 208 207 202 195 193 192 197 202 202 214 226 234 235 232 229 226 230 238 239 240 244 243 238 235 234 231 229 233 236 239 242 242 242 242 241 240 240 241 244 244 245 248 250 249 245 246 250 249 248 248 247 246 246 248 254 264 277 290 299 303 306 308 309 310 311 311 310
237 238 241 242 239 235 234 232 231 230 231 231 228 225 223 221 219 218 216 214 208 201 198 198 202 209 210 214 223 237 246 243 238 236 238 242 242 244 245 244 239 238 237 235 234 236 237 239 241 242 242 243 244 244 242 242 245 247 247 249 251 252 251 251 253 255 254 254 255 253 251 251 253 260 269 283 293 297 301 304 302 304 307 306 306
240 241 242 244 242 240 237 235 234 232 233 233 233 231 229 227 225 224 224 222 219 215 212 211 212 214 217 221 225 236 248 250 248 248 247 244 247 248 245 243 240 241 242 242 242 240 241 241 241 242 242 243 244 245 245 243 245 248 249 250 251 253 254 254 255 257 256 257 258 257 257 256 254 258 264 274 285 293 295 296 298 300 301 304 303
242 243 244 245 245 243 241 238 236 235 236 236 235 235 233 231 230 228 228 228 227 226 224 224 222 220 222 225 229 241 250 253 256 259 255 250 251 250 243 243 245 246 247 247 248 247 246 245 244 244 243 243 245 245 246 246 246 248 250 251 252 253 254 256 257 257 256 257 259 259 258 258 257 258 263 271 278 284 288 289 293 295 298 301 302
243 243 244 245 246 245 244 240 238 238 239 238 238 237 235 234 232 230 229 228 230 229 227 228 225 223 226 226 229 244 253 255 260 267 265 259 252 248 245 249 255 256 254 251 249 250 250 250 249 248 247 245 245 247 247 248 248 248 251 253 253 253 255 256 258 259 258 259 260 261 260 260 261 262 264 267 271 276 281 286 290 293 295 297 300
244 244 243 244 245 246 245 243 241 242 242 240 239 238 237 236 233 232 231 230 231 230 229 227 225 226 229 228 232 244 252 255 261 269 272 268 259 253 253 257 262 262 259 255 252 252 251 251 251 250 250 248 247 248 249 249 249 248 251 254 255 254 255 256 259 260 260 261 263 263 263 264 265 266 264 264 267 272 278 286 292 295 295 294 296
246 244 242 242 243 244 245 245 244 247 248 243 240 239 239 237 235 233 234 232 231 230 228 225 224 230 234 233 236 243 248 251 258 264 270 271 268 264 262 263 266 265 262 260 258 255 252 251 252 252 251 250 250 250 251 251 251 251 251 254 257 256 256 257 259 261 262 262 263 264 265 266 268 267 267 265 266 272 278 286 293 295 296 293 293
245 243 240 239 241 242 243 247 247 249 254 249 242 238 238 238 236 234 234 234 232 228 224 222 224 232 237 239 241 243 247 249 252 260 266 267 268 267 265 266 268 267 265 264 262 257 251 248 250 253 253 252 252 252 253 254 254 254 253 255 257 259 259 259 260 262 263 264 264 265 266 266 268 269 269 268 267 271 277 284 291 294 294 293 293
242 242 239 237 239 241 242 246 249 252 255 253 244 237 236 239 236 232 232 232 231 227 220 218 225 234 239 240 240 242 247 249 251 256 261 261 264 266 266 266 268 267 264 263 262 257 251 248 251 255 255 254 254 254 255 255 255 256 255 255 257 259 261 261 261 263 265 267 267 266 267 268 269 270 270 270 268 270 275 281 287 291 294 294 294
243 242 241 237 238 241 243 244 249 253 254 253 249 242 239 241 238 231 228 228 228 227 221 219 227 236 242 239 236 239 246 250 252 254 257 259 262 266 266 266 266 265 263 261 260 259 255 251 253 255 255 255 256 257 257 258 258 258 258 258 257 258 260 261 261 263 265 268 270 269 268 270 272 272 271 270 269 269 272 277 282 288 292 295 295
243 244 243 239 237 240 242 244 247 252 255 253 251 247 242 241 241 236 231 230 229 230 229 226 229 236 242 239 233 237 246 250 254 255 256 260 262 265 266 265 264 263 261 261 260 260 259 257 256 257 258 257 258 260 259 259 260 261 262 261 261 260 260 260 260 261 263 266 269 270 269 270 272 272 271 270 268 268 269 273 278 285 290 293 295
240 242 243 240 238 238 240 242 244 249 253 251 249 249 247 244 244 242 239 236 233 232 232 231 232 237 241 238 233 237 245 249 253 256 257 259 260 261 264 264 264 262 260 262 263 260 259 259 259 260 259 258 259 261 260 259 261 262 263 263 263 263 262 260 259 258 259 262 265 268 269 270 271 271 270 268 267 266 267 270 274 280 286 291 295
237 240 242 241 240 238 238 238 241 246 250 249 249 251 251 249 247 245 242 240 237 234 233 231 233 236 237 235 233 236 242 246 250 254 257 258 257 257 260 264 266 265 262 262 262 261 259 260 260 260 259 259 259 260 260 260 261 264 265 264 263 265 265 263 260 258 257 258 261 263 264 266 269 270 269 267 266 264 265 267 269 275 280 285 289
238 239 241 242 242 241 239 236 236 242 247 248 249 251 252 250 247 244 241 240 239 238 237 233 231 233 237 238 236 235 239 244 247 250 253 256 256 255 257 263 267 269 267 264 262 261 260 261 260 259 259 260 260 260 260 260 263 265 265 265 264 265 267 265 262 259 256 256 257 258 258 260 264 267 267 266 265 264 263 264 266 270 274 277 280
240 240 241 242 243 243 243 238 235 238 242 246 247 249 251 250 248 245 241 239 239 239 238 235 233 233 237 240 238 236 237 240 241 243 247 251 253 255 259 263 268 270 269 266 264 262 261 262 261 260 260 262 263 262 261 261 264 266 266 265 264 264 264 264 263 261 257 253 253 255 254 255 259 263 265 265 265 264 263 263 265 268 271 272 274
240 243 243 242 242 244 244 241 236 235 239 243 244 247 249 249 249 247 244 240 239 237 236 236 236 233 234 237 236 237 237 237 238 239 241 244 248 253 258 263 266 268 268 267 266 265 264 263 262 262 262 264 265 264 262 262 264 265 265 264 262 261 259 261 264 263 260 254 250 251 251 251 255 259 262 263 264 265 264 264 265 267 270 271 272
239 243 243 241 240 243 246 244 240 236 236 240 243 245 247 249 249 249 247 243 241 240 237 238 238 232 231 234 232 232 238 239 238 240 240 241 244 249 254 258 262 265 266 267 267 267 265 263 263 263 264 264 264 264 262 261 262 263 263 261 259 259 260 264 267 266 262 256 251 250 249 248 252 256 259 261 263 264 265 265 265 267 269 271 272
237 241 241 240 240 242 247 247 242 239 236 238 242 245 247 249 250 249 248 247 245 244 242 242 241 234 231 234 235 235 240 242 239 241 243 242 243 246 250 254 257 261 263 265 266 266 265 263 263 264 266 264 261 261 261 260 259 261 261 259 258 259 263 268 270 269 265 259 254 251 249 248 249 254 257 259 262 263 265 266 266 267 269 271 273
236 238 239 240 240 242 246 247 244 241 240 239 241 244 246 248 250 250 250 249 247 246 246 245 244 238 232 233 237 239 242 245 243 244 247 248 248 248 250 252 255 257 259 261 263 265 265 264 263 265 266 264 260 260 262 262 260 258 258 258 257 257 261 266 269 270 267 262 256 252 250 249 249 252 256 258 261 263 265 266 267 267 269 271 273
237 236 237 238 240 242 245 247 246 244 244 242 242 244 247 249 250 251 251 250 249 249 249 248 245 242 234 231 234 237 239 243 249 253 254 257 260 258 254 252 252 253 255 257 260 262 263 263 263 264 265 264 263 263 264 264 261 257 256 257 258 257 257 261 266 269 270 265 258 254 253 251 251 254 256 258 260 263 265 266 267 267 268 270 272
240 238 237 237 239 243 244 246 247 245 246 246 244 243 246 248 249 250 251 251 251 251 251 250 248 247 239 232 233 235 237 240 246 254 256 257 263 262 256 252 250 249 249 252 255 258 260 261 261 262 264 265 265 265 266 265 262 256 255 256 258 258 256 258 263 268 270 268 260 255 254 254 254 256 258 260 261 263 265 267 268 268 269 270 272
240 239 240 239 240 245 246 246 246 244 245 248 247 243 244 247 247 249 251 252 252 252 252 251 250 250 245 238 235 235 236 238 240 245 250 252 256 258 254 251 251 248 246 248 251 255 256 257 259 260 262 263 264 264 264 263 261 257 256 257 259 260 259 258 262 266 269 268 262 258 257 257 257 258 260 262 264 265 266 267 269 269 271 272 273
242 239 241 241 243 247 248 247 244 243 245 247 248 246 243 244 246 248 249 251 252 252 253 253 252 251 248 244 240 238 238 238 238 239 244 247 250 254 251 249 252 253 250 251 253 256 257 256 257 258 259 261 262 262 262 261 260 258 259 260 261 261 261 260 261 264 266 265 262 259 259 260 262 263 264 265 266 268 269 270 271 271 272 273 273
246 243 243 242 244 247 248 246 243 241 244 245 246 247 244 243 245 247 247 248 250 251 252 253 252 250 249 248 245 242 241 242 241 239 240 244 247 251 251 250 253 254 251 251 254 255 256 257 257 257 258 260 262 263 262 261 260 260 261 262 262 262 261 259 260 262 265 265 262 259 260 262 263 266 267 268 268 269 270 271 272 274 275 276 276
250 247 246 245 246 248 248 247 243 240 241 243 245 245 243 242 243 246 246 247 247 248 251 253 253 251 251 250 249 246 245 245 245 242 240 242 245 248 249 251 254 256 255 252 253 255 257 258 258 258 258 259 260 262 262 262 261 261 262 264 266 265 260 257 258 261 264 265 263 260 260 261 264 266 267 269 270 271 272 272 273 274 276 277 278
258 254 252 250 250 250 250 249 246 243 242 243 244 245 242 241 241 245 247 248 247 247 250 252 253 253 252 252 251 250 249 247 247 245 242 241 243 244 247 251 255 257 257 255 254 256 259 260 260 259 259 259 258 259 259 260 261 262 264 266 267 265 260 257 258 261 263 265 264 262 261 262 263 266 268 271 272 274 275 275 275 276 276 277 278
265 260 257 255 253 252 253 252 248 245 244 244 244 245 243 239 239 243 247 249 248 248 249 251 252 253 253 252 252 252 251 249 247 246 243 242 242 244 247 251 255 256 257 255 253 256 260 262 262 260 259 259 258 259 259 260 260 262 264 266 267 264 260 258 259 261 263 265 265 263 262 262 264 267 271 274 276 277 277 277 277 277 278 278 278
269 264 259 256 254 252 253 255 251 246 245 245 245 244 242 239 238 240 245 248 249 249 250 251 252 253 253 253 254 254 252 250 247 246 244 244 244 246 248 250 252 255 257 257 255 258 260 260 259 258 258 258 259 259 261 263 262 261 262 263 264 264 261 260 261 261 262 264 266 265 263 264 266 269 272 275 278 280 281 279 278 277 278 279 280
274 267 261 256 254 252 252 254 252 248 246 246 245 243 241 239 237 238 243 247 249 250 250 251 252 253 253 254 255 256 255 252 249 247 244 244 246 248 250 250 251 252 255 257 258 260 260 259 258 259 259 258 259 261 262 263 262 261 261 261 262 263 261 261 261 262 261 262 264 265 265 266 268 270 272 275 278 280 282 281 279 277 277 277 279
280 273 264 257 254 253 253 252 251 248 245 245 245 243 240 237 237 239 243 245 246 247 249 250 252 253 253 254 254 256 257 254 251 249 246 243 244 247 250 252 252 252 252 254 258 260 260 260 260 262 263 261 262 263 263 264 264 262 262 262 263 263 261 260 261 262 262 261 262 264 266 269 270 272 274 276 278 280 281 282 280 279 278 277 277
281 278 270 263 257 254 253 252 251 248 246 246 245 243 239 238 238 240 243 243 242 243 245 248 251 252 253 254 254 255 256 254 252 251 249 245 244 246 249 252 253 254 252 250 254 258 258 259 259 261 265 265 262 262 262 262 262 261 261 262 263 262 261 260 260 262 262 262 263 265 267 269 271 273 276 278 279 280 281 281 282 283 282 279 277
279 279 274 267 260 256 254 252 251 250 248 246 245 242 239 239 240 241 243 243 243 244 245 246 248 250 252 253 254 256 255 252 252 252 251 248 246 246 249 252 254 256 255 249 249 254 256 257 258 259 262 265 264 261 259 258 258 256 256 258 261 262 261 260 261 263 263 264 265 266 267 269 270 273 276 278 279 280 281 281 283 286 287 284 280
278 278 276 270 263 259 257 254 252 251 249 247 246 244 241 239 239 241 243 243 245 246 246 245 246 247 249 250 253 255 253 251 251 252 252 251 249 247 247 251 253 255 254 249 247 251 254 255 256 257 258 261 262 259 257 257 258 256 256 257 260 261 261 262 264 266 267 268 269 269 269 270 271 273 276 277 279 279 280 281 282 285 288 289 287
276 276 276 274 267 259 256 256 255 253 251 249 248 248 246 241 239 242 244 244 246 248 246 245 246 246 247 249 251 252 251 250 250 250 251 252 251 248 246 248 251 252 251 248 247 249 253 254 255 255 256 257 259 258 257 258 260 262 261 260 261 261 263 265 267 270 272 273 274 274 274 274 274 275 277 277 278 279 279 280 281 283 286 288 289
276 275 275 275 271 261 253 254 255 253 250 248 247 248 248 245 242 243 245 245 247 248 246 246 248 247 246 247 250 250 248 248 249 249 250 251 250 249 247 246 248 250 249 247 246 248 252 255 256 256 256 256 257 258 258 260 263 265 264 263 262 262 263 265 267 272 275 276 277 278 277 277 277 278 278 279 280 280 280 280 281 282 285 287 288
273 273 272 272 270 263 254 250 251 250 249 248 247 245 245 246 246 245 245 246 247 245 244 246 249 249 247 248 249 249 246 246 248 249 249 249 249 249 249 247 246 247 248 247 246 246 250 254 256 257 258 258 259 260 260 260 261 262 264 265 264 262 263 265 267 271 274 275 277 277 276 276 276 276 277 278 279 280 280 280 281 283 284 285 286
272 271 271 270 268 264 256 249 247 246 247 247 245 243 243 245 246 246 246 247 247 244 242 244 247 249 248 248 249 247 244 244 247 248 248 249 249 249 249 248 246 246 247 248 247 247 249 252 254 256 259 261 262 262 262 261 262 262 264 264 262 262 263 264 266 269 272 274 275 275 275 274 274 275 276 277 277 278 278 279 282 284 284 285 286
273 270 269 268 266 263 257 251 247 247 248 246 243 242 243 244 247 247 246 246 247 246 243 242 245 248 248 247 248 246 243 244 246 247 247 248 249 250 250 249 247 246 246 247 247 248 250 252 254 256 258 260 262 263 262 263 265 265 265 263 261 261 262 263 265 268 271 274 275 276 276 277 277 277 278 279 280 279 278 281 284 284 283 284 285
271 269 269 268 265 260 256 250 247 247 248 247 245 243 242 243 247 247 245 244 245 244 243 243 245 248 248 247 247 245 244 244 246 247 247 247 249 251 251 249 247 246 246 246 246 247 249 251 253 255 257 259 262 263 263 263 265 264 263 263 261 259 259 261 264 266 268 271 274 276 278 280 282 283 283 283 283 282 282 283 284 282 283 286 286
274 271 271 269 263 258 254 250 247 246 247 248 248 246 244 243 245 246 245 244 244 243 242 243 244 246 247 246 245 245 245 245 247 247 246 247 248 251 253 251 248 246 246 246 245 246 248 250 252 254 257 259 261 262 263 263 261 257 256 260 262 259 258 260 261 264 266 268 271 274 277 281 283 285 286 285 285 285 284 284 283 281 284 287 288
278 278 277 273 266 259 254 250 248 247 248 249 250 249 246 245 246 246 245 245 244 243 242 243 244 245 246 244 243 244 245 247 248 248 248 248 248 250 253 251 247 246 246 246 246 247 248 250 252 254 256 258 260 260 260 258 255 254 256 260 262 261 264 266 264 264 267 269 272 274 276 279 282 284 285 285 284 284 284 284 283 283 285 287 287
271 278 281 277 269 262 258 254 251 250 251 251 251 251 249 247 248 247 246 246 245 243 242 243 243 244 245 244 243 243 245 247 249 249 249 249 250 252 253 252 248 246 245 246 246 247 248 248 251 252 253 256 258 258 258 257 256 257 260 262 263 265 269 271 269 268 270 272 275 276 277 278 281 282 283 283 282 282 284 285 287 288 288 287 288
261 270 278 279 273 265 260 257 255 255 256 254 253 253 252 250 250 248 247 246 245 243 242 242 242 244 246 247 245 244 244 245 247 248 249 249 251 253 254 253 251 249 247 247 247 248 247 247 249 250 251 255 258 258 259 261 261 261 262 263 265 267 269 270 272 273 273 274 276 278 279 279 280 280 279 279 280 282 285 287 288 287 286 285 286
262 266 275 282 281 272 263 258 254 254 257 258 258 257 254 251 250 248 247 246 244 243 242 242 243 243 246 248 248 248 247 245 245 247 248 249 250 251 253 254 254 253 251 249 249 248 247 248 250 250 251 255 259 260 261 263 264 264 264 264 264 267 267 268 272 274 275 278 281 281 282 281 280 279 277 276 279 282 284 285 284 283 283 284 285
267 270 275 280 284 281 272 264 256 253 254 258 260 261 259 255 251 248 246 246 246 245 244 244 244 244 246 247 247 248 249 248 247 247 247 248 248 249 250 252 253 254 253 252 252 252 251 251 252 253 256 258 260 263 264 266 266 266 266 265 265 266 267 268 272 275 278 281 283 283 284 282 281 280 277 276 279 281 282 283 283 283 283 284 284
267 270 274 274 275 277 275 269 263 257 256 258 258 259 261 260 256 250 246 245 245 245 246 246 246 245 245 246 246 248 248 249 249 248 248 248 249 251 252 252 252 252 251 250 250 250 249 249 250 255 261 263 264 267 269 268 268 268 267 268 269 270 270 272 275 277 280 281 282 282 280 279 280 280 278 279 280 280 282 284 285 286 286 287 286
266 269 273 274 274 272 271 269 266 260 257 257 257 257 259 262 259 252 247 245 244 242 242 244 246 245 243 243 245 248 249 252 254 254 253 253 253 254 255 256 256 255 253 251 248 247 247 247 247 252 259 263 265 268 270 271 271 271 272 272 274 274 274 275 276 276 276 278 279 278 276 278 281 280 279 281 280 280 284 285 286 290 292 292 292
263 265 269 273 273 271 269 269 268 262 255 253 256 256 257 258 254 249 247 247 245 241 240 241 243 244 243 242 243 246 250 252 253 253 255 256 256 255 255 255 255 256 256 255 254 253 254 255 256 259 263 265 264 264 266 267 268 271 273 273 274 274 272 272 274 275 276 278 279 278 275 276 279 278 277 278 278 280 283 283 284 290 293 293 292
259 260 264 268 268 269 268 267 268 266 257 251 251 251 251 252 250 247 246 245 241 238 238 240 242 242 242 242 242 244 245 246 245 245 249 254 257 257 255 254 254 254 254 255 256 256 257 261 265 267 268 269 267 265 266 267 268 270 270 269 271 271 270 270 271 274 277 277 277 277 274 273 277 278 277 278 280 283 284 283 285 288 289 288 288
260 259 263 266 265 263 264 264 264 264 259 253 252 249 247 248 250 247 246 245 241 237 238 239 240 241 242 242 242 242 242 242 243 244 247 253 256 255 254 254 255 254 254 256 259 259 260 263 266 265 266 269 272 274 276 275 275 273 269 270 273 271 268 267 269 273 276 275 274 275 274 275 279 282 284 287 287 286 284 282 282 283 283 285 286
267 264 264 266 264 259 258 261 261 260 259 257 256 251 244 244 246 244 244 247 245 240 237 237 238 240 241 242 242 243 243 244 245 246 248 252 253 252 252 254 253 254 256 259 261 261 262 264 265 265 266 269 274 278 279 279 281 279 274 274 276 273 268 269 270 270 271 273 276 278 279 282 282 283 288 291 290 288 285 281 281 284 286 288 287